Location: Unspecified
(0.0000°N, 0.0000°E)
Time: 13:17:28
(UTC+00:00)

ADRAS-J - Pass Details

Date: 18 May 2025
Orbit: 544 x 592 km, 98.2° (Epoch: 16 June)

Event Time Altitude Azimuth Distance (km) Brightness Sun altitude
Rises 04:54:14 0° 19° (NNE) 2,796 ? -14.6°
Reaches altitude 10° 04:56:24 10° 24° (NNE) 1,904 ? -14.1°
Maximum altitude 05:00:27 55° 102° (ESE) 710 ? -13.2°
Drops below altitude 10° 05:04:33 10° 180° (S) 1,924 ? -12.2°
Sets 05:06:45 0° 184° (S) 2,828 ? -11.7°
